Погода в Нунукане

Индонезия     4°15′40″N   117°05′26″E
темп.,
°C
ветер,
м/с
пор.,
м/с
влажн.,
%
обл.,
%
осадки,
мм/ч
давл.,
гПа
погр.,
м
2 марта, вт
вт223:00+22ссз129499 0.1 101338
02:00+22ссз129599 0.7 101235
05:00+21ссз1294100 0.0 101232
08:00+24сз0187100 0.0 1013110
11:00+31ююв115779 0.0 10131109
14:00+29ссз017290 3.6 1010724
17:00+29св0277100 1.6 1009378
20:00+23ссв129483 2.6 101145
3 марта, ср
ср323:00+22с129545 0.0 101332
02:00+22ссз129423 0.0 101229
05:00+21ссз119396 0.0 101124
08:00+24ссз118366 0.0 1013110
11:00+31юв125161 0.0 10131388
14:00+32вюв225156 0.1 10091671
17:00+27в138567 2.2 1009388
20:00+23ссв129633 3.0 101232
4 марта, чт
чт423:00+22с12967 0.5 101427
02:00+21ссз12954 0.5 101226
05:00+21ссз11950 0.0 101224
08:00+24зсз01878 0.0 1014147
11:00+30ююв125568 0.3 10141451
14:00+29ююв226884 1.3 1011840
17:00+27всв1276100 1.1 1009410
20:00+22св119260 1.6 101225
5 марта, пт
пт523:00+21с11979 1.4 101323
02:00+21ссз12976 2.3 101241
05:00+21ссз129642 0.2 101128
08:00+24зсз018932 0.2 1014152
11:00+31ююв125247 0.0 10131335
14:00+32вюв235052 1.0 10091693
17:00+28в147758 1.4 1009255
20:00+23св119461 3.7 101229
6 марта, сб
сб623:00+22ссз119677 1.4 101324
02:00+21ссз119645 2.6 101226
05:00+21ссз119483 0.4 101128
08:00+24сз118645 0.4 1013114
11:00+31юв235210 0.4 10131458
14:00+29вюв127328 3.2 10101170
17:00+26в1290100 6.3 1010208
20:00+22ссв129595 7.3 101226